Torna al catalogo

SL-12 R/B(2)

AttivoGEO
NORAD 19400·ROCKET BODY·🇷🇺 Russia

Lanciato Aug 18, 1988 da Baikonur Cosmodrome

Loading…

TLE

AggiornatoSource: Space-Track

Epoca: Sep 14, 2026, 11:13 UTC

1 19400U 88071D   26257.46758478  .00000066  00000-0  00000-0 0  9991
2 19400  11.1448 328.4754 0020450 244.1161 166.3752  1.00549980133607

Traccia SL-12 R/B(2) in tempo reale con AllMySat

Download on the App Store